Regional Weather Roundup
Issued by NWS

Home | Current Version | Previous Version | Text Only | Print | Product List | Glossary On
Versions: 1 2 3 4 5 6 7 8 9 10 11 12 13 14 15 16 17 18 19 20 21 22 23 24 25 26 27 28
000
ASUS44 KJAN 281110
RWRMS

MISSISSIPPI HOURLY WEATHER ROUNDUP
NATIONAL WEATHER SERVICE JACKSON MS
600 AM CDT SUN MAY 28 2017

NOTE: "FAIR: INDICATES FEW OR NO CLOUDS BELOW 12,000 FEET WITH NO
SIGNIFICANT WEATHER AND/OR OBSTRUCTIONS TO VISIBILITY.

MSZ001>002-007>008-010>013-018>021-025>028-034>036-281200-
NORTHWEST MISSISSIPPI

CITY           SKY/WX    TMP DP  RH WIND       PRES   REMARKS
BATESVILLE     TSTM      64  63  94 SE3       30.03F
CLARKSDALE       N/A     66  66 100 MISG      30.04R
CLEVELAND      PTSUNNY   66  66 100 E12       30.03F
GREENWOOD      CLOUDY    67  65  93 NE13      30.04F
GREENVILLE       N/A    N/A N/A N/A MISG      30.02R THUNDER
OXFORD         HVY RAIN  63  63 100 CALM      30.05S
TUNICA         RAIN      63  63 100 SE6       30.02F
WINONA         RAIN      65  64  99 NE8       30.07R
$$

MSZ003>006-009-014>017-022>024-029>033-037>039-281200-
NORTHEAST MISSISSIPPI

CITY           SKY/WX    TMP DP  RH WIND       PRES   REMARKS
COLUMBUS AFB   CLOUDY    66  66 100 NW6       30.04R
CORINTH        RAIN      64  63  94 SW10      29.99R
GOLDN TRIANGLE CLOUDY    64  61  88 CALM      29.99S
STARKVILLE     CLOUDY    64  63  94 NW5       30.07R
TUPELO         RAIN      65  63  93 SE3       30.03R
$$

MSZ040-058-281200-
CENTRAL MISSISSIPPI

CITY           SKY/WX    TMP DP  RH WIND       PRES   REMARKS
JACKSON INTL   CLOUDY    73  71  93 CALM      30.01R
JACKSON HAWKNS MOCLDY    75  72  90 NE3       30.01R
MADISON        PTSUNNY   72  70  94 SE3       30.00S
MERIDIAN KEY   CLOUDY    75  74  96 SW6       30.01R
MERIDIAN NAS   CLOUDY    76  71  85 W7        30.01R
VICKSBURG VKS  MOSUNNY   75  73  94 CALM      29.96R
$$

MSZ059>079-281200-
SOUTH MISSISSIPPI

CITY           SKY/WX    TMP DP  RH WIND       PRES   REMARKS
COLUMBIA       CLOUDY    75  75 100 CALM      30.03R FOG
HATTIESBURG    MOCLDY    76  74  93 CALM      30.01R
LAUREL         CLOUDY    74  74 100 CALM      30.02R
MCCOMB         CLOUDY    76  73  91 CALM      29.99R
NATCHEZ        CLOUDY    78  75  90 CALM      29.99R
PINE BELT      CLOUDY    75  72  88 CALM      30.03R
$$

MSZ080>082-281200-
COASTAL MISSISSIPPI

CITY           SKY/WX    TMP DP  RH WIND       PRES   REMARKS
BILOXI         MOCLDY    79  75  89 SW7       29.98R
PASCAGOULA     LGT RAIN  78  74  87 VRB3      29.98R
GULFPORT       CLOUDY    80  76  87 W6        29.97R
$$

LAZ007>009-015>016-023>026-281200-
NORTHEAST LOUISIANA

CITY           SKY/WX    TMP DP  RH WIND       PRES   REMARKS
BASTROP        FAIR      73  72  98 CALM      30.01R FOG
TALLULAH/VBURG CLOUDY    75  73  93 N5        30.00R
VIDALIA        CLOUDY    76  75  95 NE6       29.96R
$$




USA.gov is the U.S. government's official web portal to all federal, state and local government web resources and services.